Time,TemperatureF,DewpointF,PressureIn,WindDirection,WindDirectionDegrees,WindSpeedMPH,WindSpeedGustMPH,Humidity,HourlyPrecipIn,Conditions,Clouds,dailyrainin,SoftwareType,DateUTC
2013-01-26 00:02:00,39.0,39.0,30.19,NW,318,5.0,5.0,100,0.00,,,0.00,,2013-01-26 06:02:00,
2013-01-26 00:12:00,39.0,39.0,30.19,NW,318,5.0,5.0,100,0.00,,,0.00,,2013-01-26 06:12:00,
2013-01-26 00:21:00,39.0,39.0,30.19,NNE,30,6.0,6.0,100,0.00,,,0.00,,2013-01-26 06:21:00,
2013-01-26 00:31:00,39.0,39.0,30.19,NNE,30,6.0,6.0,100,0.00,,,0.00,,2013-01-26 06:31:00,
2013-01-26 00:41:00,39.0,39.0,30.19,NNE,30,6.0,6.0,100,0.00,,,0.00,,2013-01-26 06:41:00,
2013-01-26 00:51:00,39.0,39.0,30.19,NNE,30,6.0,6.0,100,0.00,,,0.00,,2013-01-26 06:51:00,
2013-01-26 01:02:00,39.0,39.0,30.20,NW,316,4.0,0.0,100,0.00,,,0.18,,2013-01-26 07:02:00,
2013-01-26 01:12:00,39.0,39.0,30.20,NW,316,4.0,0.0,100,0.00,,,0.18,,2013-01-26 07:12:00,
2013-01-26 01:21:00,39.0,39.0,30.21,NNW,343,4.0,0.0,100,0.00,,,0.18,,2013-01-26 07:21:00,
2013-01-26 01:33:00,39.0,39.0,30.21,NNW,343,3.0,0.0,100,0.00,,,0.18,,2013-01-26 07:33:00,
2013-01-26 01:41:00,39.0,39.0,30.21,NNW,343,3.0,0.0,100,0.00,,,0.18,,2013-01-26 07:41:00,
2013-01-26 01:52:00,39.0,39.0,30.21,NNE,23,6.0,7.0,100,0.00,,,0.18,,2013-01-26 07:52:00,
2013-01-26 02:02:00,38.0,38.0,30.22,North,6,4.0,6.0,100,0.00,,,0.18,,2013-01-26 08:02:00,
2013-01-26 02:11:00,38.0,38.0,30.22,North,6,4.0,6.0,100,0.00,,,0.18,,2013-01-26 08:11:00,
2013-01-26 02:21:00,38.0,38.0,30.22,North,356,5.0,10.0,100,0.00,,,0.18,,2013-01-26 08:21:00,
2013-01-26 02:31:00,38.0,38.0,30.23,NE,37,7.0,7.0,100,0.00,,,0.18,,2013-01-26 08:31:00,
2013-01-26 02:42:00,38.0,38.0,30.23,NE,37,7.0,7.0,100,0.00,,,0.18,,2013-01-26 08:42:00,
2013-01-26 02:54:00,37.0,37.0,30.23,NNE,23,8.0,8.0,100,0.00,,,0.18,,2013-01-26 08:54:00,
2013-01-26 03:02:00,37.0,37.0,30.24,North,3,8.0,10.0,100,0.00,,,0.18,,2013-01-26 09:02:00,
2013-01-26 03:11:00,37.0,37.0,30.24,North,3,8.0,10.0,100,0.00,,,0.18,,2013-01-26 09:11:00,
2013-01-26 03:22:00,37.0,37.0,30.23,NNW,345,6.0,7.0,100,0.00,,,0.18,,2013-01-26 09:22:00,
2013-01-26 03:31:00,37.0,37.0,30.23,NNW,345,6.0,7.0,100,0.00,,,0.18,,2013-01-26 09:31:00,
2013-01-26 03:42:00,37.0,37.0,30.23,NNW,345,6.0,7.0,100,0.00,,,0.18,,2013-01-26 09:42:00,
2013-01-26 03:51:00,35.0,35.0,30.24,North,359,5.0,5.0,100,0.00,,,0.18,,2013-01-26 09:51:00,
2013-01-26 04:01:00,35.0,35.0,30.24,NNE,23,6.0,6.0,100,0.00,,,0.18,,2013-01-26 10:01:00,
2013-01-26 04:12:00,35.0,35.0,30.24,NNE,23,6.0,6.0,100,0.00,,,0.18,,2013-01-26 10:12:00,
2013-01-26 04:21:00,34.0,34.0,30.24,NE,48,4.0,4.0,100,0.00,,,0.18,,2013-01-26 10:21:00,
2013-01-26 04:31:00,34.0,34.0,30.24,North,6,2.0,6.0,100,0.00,,,0.18,,2013-01-26 10:31:00,
2013-01-26 04:42:00,34.0,34.0,30.24,North,6,2.0,6.0,100,0.00,,,0.18,,2013-01-26 10:42:00,
2013-01-26 04:52:00,34.0,34.0,30.24,NE,39,3.0,3.0,100,0.00,,,0.18,,2013-01-26 10:52:00,
2013-01-26 05:01:00,34.0,34.0,30.24,NW,316,1.0,0.0,100,0.00,,,0.18,,2013-01-26 11:01:00,
2013-01-26 05:12:00,34.0,34.0,30.24,NW,316,1.0,0.0,100,0.00,,,0.18,,2013-01-26 11:12:00,
2013-01-26 05:22:00,34.0,34.0,30.24,North,3,4.0,0.0,100,0.00,,,0.18,,2013-01-26 11:22:00,
2013-01-26 05:32:00,34.0,34.0,30.25,North,359,0.0,0.0,100,0.00,,,0.18,,2013-01-26 11:32:00,
2013-01-26 05:42:00,34.0,34.0,30.25,North,359,0.0,0.0,100,0.00,,,0.18,,2013-01-26 11:42:00,
2013-01-26 05:52:00,34.0,34.0,30.26,North,357,0.0,0.0,100,0.00,,,0.18,,2013-01-26 11:52:00,
2013-01-26 06:02:00,34.0,34.0,30.27,NNW,335,5.0,5.0,100,0.00,,,0.18,,2013-01-26 12:02:00,
2013-01-26 06:12:00,34.0,34.0,30.27,NNW,335,5.0,5.0,100,0.00,,,0.18,,2013-01-26 12:12:00,
2013-01-26 06:22:00,34.0,34.0,30.27,NNW,335,5.0,5.0,100,0.00,,,0.18,,2013-01-26 12:22:00,
2013-01-26 06:33:00,33.0,33.0,30.26,NNW,336,0.0,0.0,100,0.00,,,0.18,,2013-01-26 12:33:00,
2013-01-26 06:42:00,33.0,33.0,30.26,NNW,336,0.0,0.0,100,0.00,,,0.18,,2013-01-26 12:42:00,
2013-01-26 06:53:00,33.0,33.0,30.27,NW,304,1.0,0.0,100,0.00,,,0.18,,2013-01-26 12:53:00,
2013-01-26 07:03:00,33.0,33.0,30.27,NNW,339,0.0,0.0,100,0.00,,,0.18,,2013-01-26 13:03:00,
2013-01-26 07:12:00,33.0,33.0,30.27,NNW,339,0.0,0.0,100,0.00,,,0.18,,2013-01-26 13:12:00,
2013-01-26 07:22:00,33.0,33.0,30.27,NNW,339,0.0,0.0,100,0.00,,,0.18,,2013-01-26 13:22:00,
2013-01-26 07:32:00,33.0,33.0,30.27,NNW,339,0.0,0.0,100,0.00,,,0.18,,2013-01-26 13:32:00,
2013-01-26 07:53:00,33.0,33.0,30.27,NNE,15,0.0,0.0,100,0.00,,,0.18,,2013-01-26 13:53:00,
2013-01-26 08:03:00,33.0,33.0,30.28,NNE,15,0.0,0.0,100,0.00,,,0.18,,2013-01-26 14:03:00,
2013-01-26 08:12:00,33.0,33.0,30.28,NNE,15,0.0,0.0,100,0.00,,,0.18,,2013-01-26 14:12:00,
2013-01-26 08:21:00,34.0,34.0,30.28,North,10,0.0,0.0,100,0.00,,,0.18,,2013-01-26 14:21:00,
2013-01-26 08:32:00,34.0,34.0,30.28,North,10,0.0,0.0,100,0.00,,,0.18,,2013-01-26 14:32:00,
2013-01-26 08:43:00,34.0,34.0,30.28,North,10,0.0,0.0,100,0.00,,,0.18,,2013-01-26 14:43:00,
2013-01-26 08:53:00,35.0,35.0,30.29,NNE,28,2.0,0.0,100,0.00,,,0.18,,2013-01-26 14:53:00,
2013-01-26 09:02:00,35.0,35.0,30.29,NNE,15,4.0,0.0,100,0.00,,,0.18,,2013-01-26 15:02:00,
2013-01-26 09:12:00,35.0,35.0,30.29,NNE,15,4.0,0.0,100,0.00,,,0.18,,2013-01-26 15:12:00,
2013-01-26 09:22:00,36.0,36.0,30.30,North,359,1.0,3.0,100,0.00,,,0.18,,2013-01-26 15:22:00,
2013-01-26 09:32:00,37.0,37.0,30.30,NW,318,2.0,0.0,99,0.00,,,0.18,,2013-01-26 15:32:00,
2013-01-26 09:43:00,37.0,37.0,30.30,NW,318,2.0,0.0,99,0.00,,,0.18,,2013-01-26 15:43:00,
2013-01-26 09:52:00,38.0,37.0,30.31,NNW,347,0.0,0.0,98,0.00,,,0.18,,2013-01-26 15:52:00,
2013-01-26 10:02:00,38.0,37.0,30.31,NE,34,2.0,5.0,98,0.00,,,0.18,,2013-01-26 16:02:00,
2013-01-26 10:12:00,38.0,37.0,30.31,NE,34,2.0,5.0,98,0.00,,,0.18,,2013-01-26 16:12:00,
2013-01-26 10:22:00,38.0,37.0,30.31,NE,34,2.0,5.0,98,0.00,,,0.18,,2013-01-26 16:22:00,
2013-01-26 10:32:00,43.0,41.0,30.31,North,11,0.0,3.0,94,0.00,,,0.18,,2013-01-26 16:32:00,
2013-01-26 10:42:00,43.0,41.0,30.31,North,11,0.0,3.0,94,0.00,,,0.18,,2013-01-26 16:42:00,
2013-01-26 10:53:00,44.0,41.0,30.30,North,4,5.0,7.0,89,0.00,,,0.18,,2013-01-26 16:53:00,
2013-01-26 11:03:00,44.0,41.0,30.31,North,8,4.0,5.0,88,0.00,,,0.18,,2013-01-26 17:03:00,
2013-01-26 11:12:00,44.0,41.0,30.31,North,8,4.0,5.0,88,0.00,,,0.18,,2013-01-26 17:12:00,
2013-01-26 11:22:00,45.0,39.0,30.30,North,359,3.0,0.0,79,0.00,,,0.18,,2013-01-26 17:22:00,
2013-01-26 11:32:00,46.0,40.0,30.29,NW,308,1.0,0.0,78,0.00,,,0.18,,2013-01-26 17:32:00,
2013-01-26 11:42:00,46.0,40.0,30.29,NW,308,1.0,0.0,78,0.00,,,0.18,,2013-01-26 17:42:00,
2013-01-26 11:52:00,48.0,40.0,30.29,NW,319,0.0,4.0,73,0.00,,,0.18,,2013-01-26 17:52:00,
2013-01-26 12:02:00,49.0,39.0,30.29,ENE,58,2.0,0.0,68,0.00,,,0.18,,2013-01-26 18:02:00,
2013-01-26 12:12:00,49.0,39.0,30.29,ENE,58,2.0,0.0,68,0.00,,,0.18,,2013-01-26 18:12:00,
2013-01-26 12:22:00,50.0,40.0,30.29,ENE,59,0.0,0.0,68,0.00,,,0.18,,2013-01-26 18:22:00,
2013-01-26 12:32:00,52.0,40.0,30.27,NW,319,4.0,8.0,63,0.00,,,0.18,,2013-01-26 18:32:00,
2013-01-26 12:42:00,52.0,40.0,30.27,NW,319,4.0,8.0,63,0.00,,,0.18,,2013-01-26 18:42:00,
2013-01-26 12:52:00,53.0,40.0,30.27,NE,41,3.0,4.0,61,0.00,,,0.18,,2013-01-26 18:52:00,
2013-01-26 13:03:00,53.0,39.0,30.27,WNW,301,6.0,8.0,59,0.00,,,0.18,,2013-01-26 19:03:00,
2013-01-26 13:12:00,53.0,39.0,30.27,WNW,301,6.0,8.0,59,0.00,,,0.18,,2013-01-26 19:12:00,
2013-01-26 13:22:00,53.0,38.0,30.26,NNW,347,4.0,5.0,57,0.00,,,0.18,,2013-01-26 19:22:00,
2013-01-26 13:32:00,54.0,39.0,30.26,NNE,23,0.0,6.0,56,0.00,,,0.18,,2013-01-26 19:32:00,
2013-01-26 13:42:00,54.0,39.0,30.26,NNE,23,0.0,6.0,56,0.00,,,0.18,,2013-01-26 19:42:00,
2013-01-26 13:53:00,54.0,38.0,30.26,NNE,20,7.0,8.0,55,0.00,,,0.18,,2013-01-26 19:53:00,
2013-01-26 14:02:00,54.0,39.0,30.26,NNE,13,5.0,9.0,56,0.00,,,0.18,,2013-01-26 20:02:00,
2013-01-26 14:11:00,54.0,39.0,30.26,NNE,13,5.0,9.0,56,0.00,,,0.18,,2013-01-26 20:11:00,
2013-01-26 14:21:00,55.0,39.0,30.25,North,10,7.0,7.0,54,0.00,,,0.18,,2013-01-26 20:21:00,
2013-01-26 14:32:00,55.0,39.0,30.25,North,8,6.0,9.0,54,0.00,,,0.18,,2013-01-26 20:32:00,
2013-01-26 14:42:00,55.0,39.0,30.25,North,8,6.0,9.0,54,0.00,,,0.18,,2013-01-26 20:42:00,
2013-01-26 14:52:00,55.0,38.0,30.25,NE,49,5.0,5.0,53,0.00,,,0.18,,2013-01-26 20:52:00,
2013-01-26 15:02:00,54.0,37.0,30.25,WNW,300,4.0,10.0,53,0.00,,,0.18,,2013-01-26 21:02:00,
2013-01-26 15:12:00,54.0,37.0,30.25,WNW,300,4.0,10.0,53,0.00,,,0.18,,2013-01-26 21:12:00,
2013-01-26 15:22:00,53.0,36.0,30.25,NW,321,8.0,8.0,52,0.00,,,0.18,,2013-01-26 21:22:00,
2013-01-26 15:32:00,52.0,36.0,30.26,NW,322,5.0,5.0,54,0.00,,,0.18,,2013-01-26 21:32:00,
2013-01-26 15:42:00,52.0,36.0,30.26,NW,322,5.0,5.0,54,0.00,,,0.18,,2013-01-26 21:42:00,
2013-01-26 15:52:00,51.0,36.0,30.26,WNW,287,0.0,0.0,56,0.00,,,0.18,,2013-01-26 21:52:00,
2013-01-26 16:01:00,51.0,36.0,30.25,NW,309,0.0,0.0,57,0.00,,,0.18,,2013-01-26 22:01:00,
2013-01-26 16:11:00,51.0,36.0,30.25,NW,309,0.0,0.0,57,0.00,,,0.18,,2013-01-26 22:11:00,
2013-01-26 16:21:00,50.0,36.0,30.25,NNE,14,1.0,0.0,58,0.00,,,0.18,,2013-01-26 22:21:00,
2013-01-26 16:31:00,50.0,36.0,30.26,North,359,0.0,0.0,59,0.00,,,0.18,,2013-01-26 22:31:00,
2013-01-26 16:42:00,50.0,36.0,30.26,North,359,0.0,0.0,59,0.00,,,0.18,,2013-01-26 22:42:00,
2013-01-26 16:52:00,49.0,35.0,30.26,NNW,338,0.0,0.0,59,0.00,,,0.18,,2013-01-26 22:52:00,
2013-01-26 17:01:00,49.0,36.0,30.26,NNW,338,0.0,0.0,60,0.00,,,0.18,,2013-01-26 23:01:00,
2013-01-26 17:11:00,49.0,36.0,30.26,NNW,338,0.0,0.0,60,0.00,,,0.18,,2013-01-26 23:11:00,
2013-01-26 17:22:00,48.0,36.0,30.26,WNW,287,0.0,0.0,62,0.00,,,0.18,,2013-01-26 23:22:00,
2013-01-26 17:32:00,46.0,35.0,30.26,WNW,287,0.0,0.0,64,0.00,,,0.18,,2013-01-26 23:32:00,
2013-01-26 17:41:00,46.0,35.0,30.26,WNW,287,0.0,0.0,64,0.00,,,0.18,,2013-01-26 23:41:00,
2013-01-26 17:52:00,45.0,34.0,30.27,WNW,287,0.0,0.0,66,0.00,,,0.18,,2013-01-26 23:52:00,
2013-01-26 18:02:00,43.0,34.0,30.27,WNW,287,0.0,0.0,69,0.00,,,0.18,,2013-01-27 00:02:00,
2013-01-26 18:11:00,43.0,34.0,30.27,WNW,287,0.0,0.0,69,0.00,,,0.18,,2013-01-27 00:11:00,
2013-01-26 18:21:00,42.0,33.0,30.26,WNW,287,0.0,0.0,71,0.00,,,0.18,,2013-01-27 00:21:00,
2013-01-26 18:32:00,41.0,33.0,30.26,WNW,287,0.0,0.0,74,0.00,,,0.18,,2013-01-27 00:32:00,
2013-01-26 18:41:00,41.0,33.0,30.26,WNW,287,0.0,0.0,74,0.00,,,0.18,,2013-01-27 00:41:00,
2013-01-26 18:51:00,41.0,34.0,30.27,WNW,287,0.0,0.0,75,0.00,,,0.18,,2013-01-27 00:51:00,
2013-01-26 19:01:00,40.0,33.0,30.27,WNW,287,0.0,0.0,76,0.00,,,0.18,,2013-01-27 01:01:00,
2013-01-26 19:11:00,40.0,33.0,30.27,WNW,287,0.0,0.0,76,0.00,,,0.18,,2013-01-27 01:11:00,
2013-01-26 19:22:00,40.0,33.0,30.27,WNW,287,0.0,0.0,77,0.00,,,0.18,,2013-01-27 01:22:00,
2013-01-26 19:32:00,41.0,34.0,30.27,NNE,21,4.0,7.0,77,0.00,,,0.18,,2013-01-27 01:32:00,
2013-01-26 19:41:00,41.0,34.0,30.27,NNE,21,4.0,7.0,77,0.00,,,0.18,,2013-01-27 01:41:00,
2013-01-26 19:52:00,43.0,36.0,30.27,NNE,21,4.0,7.0,75,0.00,,,0.18,,2013-01-27 01:52:00,
2013-01-26 20:01:00,45.0,36.0,30.27,North,357,7.0,7.0,70,0.00,,,0.18,,2013-01-27 02:01:00,
2013-01-26 20:11:00,45.0,36.0,30.27,North,357,7.0,7.0,70,0.00,,,0.18,,2013-01-27 02:11:00,
2013-01-26 20:21:00,45.0,36.0,30.28,NE,44,0.0,0.0,70,0.00,,,0.18,,2013-01-27 02:21:00,
2013-01-26 20:31:00,45.0,35.0,30.28,NNE,20,4.0,6.0,68,0.00,,,0.18,,2013-01-27 02:31:00,
2013-01-26 20:42:00,45.0,35.0,30.28,NNE,20,4.0,6.0,68,0.00,,,0.18,,2013-01-27 02:42:00,
2013-01-26 20:52:00,45.0,35.0,30.27,NNE,27,3.0,0.0,68,0.00,,,0.18,,2013-01-27 02:52:00,
2013-01-26 21:02:00,45.0,35.0,30.27,NNE,14,3.0,0.0,68,0.00,,,0.18,,2013-01-27 03:02:00,
2013-01-26 21:11:00,45.0,35.0,30.27,NNE,14,3.0,0.0,68,0.00,,,0.18,,2013-01-27 03:11:00,
2013-01-26 21:21:00,44.0,34.0,30.28,North,357,0.0,0.0,69,0.00,,,0.18,,2013-01-27 03:21:00,
2013-01-26 21:32:00,44.0,34.0,30.27,NE,39,4.0,7.0,69,0.00,,,0.18,,2013-01-27 03:32:00,
2013-01-26 21:42:00,44.0,34.0,30.27,NE,39,4.0,7.0,69,0.00,,,0.18,,2013-01-27 03:42:00,
2013-01-26 21:52:00,44.0,34.0,30.28,North,10,4.0,5.0,69,0.00,,,0.18,,2013-01-27 03:52:00,
2013-01-26 22:01:00,44.0,34.0,30.28,NE,52,3.0,0.0,69,0.00,,,0.18,,2013-01-27 04:01:00,
2013-01-26 22:11:00,44.0,34.0,30.28,NE,52,3.0,0.0,69,0.00,,,0.18,,2013-01-27 04:11:00,
2013-01-26 22:21:00,44.0,34.0,30.28,NE,42,1.0,0.0,69,0.00,,,0.18,,2013-01-27 04:21:00,
2013-01-26 22:32:00,43.0,34.0,30.28,NNE,14,0.0,0.0,69,0.00,,,0.18,,2013-01-27 04:32:00,
2013-01-26 22:41:00,43.0,34.0,30.28,NNE,14,0.0,0.0,69,0.00,,,0.18,,2013-01-27 04:41:00,
2013-01-26 22:51:00,43.0,34.0,30.28,NNE,14,0.0,0.0,71,0.00,,,0.18,,2013-01-27 04:51:00,
2013-01-26 23:03:00,43.0,35.0,30.29,NE,34,1.0,0.0,72,0.00,,,0.18,,2013-01-27 05:03:00,
2013-01-26 23:12:00,43.0,35.0,30.29,NE,34,1.0,0.0,72,0.00,,,0.18,,2013-01-27 05:12:00,
2013-01-26 23:22:00,43.0,35.0,30.29,NNE,20,4.0,0.0,72,0.00,,,0.18,,2013-01-27 05:22:00,
2013-01-26 23:32:00,43.0,35.0,30.28,NE,44,4.0,0.0,72,0.00,,,0.18,,2013-01-27 05:32:00,
2013-01-26 23:41:00,43.0,35.0,30.28,NE,44,4.0,0.0,72,0.00,,,0.18,,2013-01-27 05:41:00,
2013-01-26 23:52:00,42.0,34.0,30.29,NNE,31,2.0,0.0,73,0.00,,,0.18,,2013-01-27 05:52:00,